CAPE
1218 1350 1656 1689 1424 1537 1561 1771 1995 2035 2167 2158 1626 907 321 568 797 1036 609 537 423 380 361 420 258 217 230 233 227 114 74 61 159 123 135 164 47 0 28 8 21 0 0
739 1547 1627 1919 2018 1908 1790 1703 1703 1953 2030 1881 979 763 401 556 663 811 694 493 570 580 528 370 282 309 125 65 78 74 170 89 71 116 21 75 59 1 0 0 0 0 0
91 426 1769 1858 2168 2209 2106 1970 1631 2017 1642 1111 836 923 1037 923 735 657 431 227 338 487 327 290 252 196 51 0 0 22 19 26 39 58 83 44 88 10 46 1 0 0 38
0 0 1409 2039 2091 2107 2053 1976 1699 1957 1083 1033 1179 1124 391 0 0 0 156 190 224 246 154 150 72 0 0 0 0 0 0 9 2 31 40 43 9 40 3 34 45 23 72
0 0 77 2110 2096 1928 2287 1824 2056 1322 1292 1189 565 20 0 0 0 0 84 193 130 149 175 79 0 0 0 23 23 25 22 72 14 2 0 0 1 0 1 1 13 0 22
0 0 907 1919 2162 2303 1573 1505 1482 1442 1045 403 22 0 0 0 0 0 32 213 140 202 191 0 0 0 0 0 0 94 50 51 18 0 1 0 3 0 0 1 13 118 119
2313 2596 2624 2692 2479 1699 980 1401 1366 1165 742 247 0 0 0 0 0 0 15 30 28 29 0 0 0 0 0 0 0 173 207 157 64 0 0 0 2 0 1 0 0 63 78
2510 2771 2917 2728 2025 1498 1743 1315 1548 731 565 70 0 0 0 0 0 0 35 0 0 0 0 0 0 0 0 0 0 0 0 0 2 0 0 0 0 0 0 0 0 0 26
2366 2629 2561 2041 1564 1659 1576 1667 959 929 582 222 62 2 0 0 0 0 275 43 0 0 0 0 0 0 0 0 0 0 0 0 0 0 0 0 0 0 0 0 0 0 0
1961 1991 2169 2266 2069 1921 1460 930 653 529 551 520 246 22 0 0 0 0 0 304 27 0 0 0 0 0 0 0 0 0 0 0 0 0 0 5 0 0 0 0 0 0 0
1933 1897 1954 2011 1817 1440 938 662 439 312 112 160 216 127 0 0 0 0 48 305 269 127 1 0 0 0 0 0 0 0 0 0 0 0 0 0 0 0 0 0 0 0 0
1551 1528 1464 1370 1370 991 747 573 337 304 323 83 6 0 0 0 0 0 0 0 18 202 4 2 0 0 0 0 0 0 0 0 0 0 0 0 0 0 0 0 0 0 0
1374 1406 1244 1192 1053 805 652 421 286 224 235 233 59 0 0 0 0 0 0 0 0 0 0 0 0 0 0 0 29 1 0 0 0 0 0 0 0 0 0 0 0 0 0
1249 1217 1113 1112 1286 862 617 402 324 209 294 476 584 421 15 0 0 0 0 0 0 0 0 0 2 1 6 3 7 13 0 0 0 0 0 0 0 0 0 0 0 0 0
1255 1258 1132 1085 1281 1141 690 546 798 428 184 241 360 603 432 216 3 0 0 0 0 0 0 32 37 2 0 0 6 0 0 0 0 0 0 0 0 0 0 0 0 0 0
1363 1207 1138 1103 1142 1077 11 0 0 0 1 0 35 63 0 70 0 0 0 0 0 0 0 0 63 29 2 0 0 0 0 0 0 0 1 0 0 0 0 0 0 0 0
1334 1094 1034 996 1186 783 78 0 0 0 1 0 0 0 0 0 0 0 0 0 0 0 0 0 0 18 0 0 0 0 0 0 0 0 0 0 3 2 2 0 0 0 0
1013 887 696 594 731 754 599 17 0 0 0 0 0 0 0 0 0 1 1 1 0 0 0 0 0 0 0 0 0 0 0 0 0 0 6 2 6 15 5 3 0 0 0
784 641 676 348 328 504 550 312 56 0 0 0 0 0 1 0 1 0 0 0 0 0 0 0 0 0 0 0 0 0 0 0 0 0 7 9 12 4 2 5 0 0 0
1036 919 530 269 395 290 328 236 223 106 12 0 0 0 0 0 0 0 0 0 0 0 0 11 0 0 0 0 0 0 0 0 0 0 0 6 1 0 8 5 0 3 0
1091 847 564 226 114 93 139 331 364 281 229 57 2 0 0 0 0 0 0 0 0 0 0 3 0 0 0 0 0 0 0 0 0 0 0 0 3 8 7 5 8 11 4
739 573 422 120 116 399 82 0 143 401 524 349 181 69 0 0 0 0 0 0 0 0 0 0 0 0 0 0 0 0 0 0 0 0 0 0 0 8 0 3 10 13 8
556 355 427 196 136 324 8 0 13 95 307 257 316 249 0 0 0 0 0 0 0 19 1 0 0 0 0 0 1 7 8 0 0 0 0 0 0 0 1 5 4 6 10
651 344 375 361 178 167 43 61 40 4 40 88 229 249 129 10 0 0 0 0 0 70 5 0 0 0 0 0 0 0 0 0 0 0 0 0 0 0 0 4 8 10 1
567 633 248 292 155 61 0 0 1 3 0 0 101 68 6 61 0 0 0 0 0 0 0 0 0 0 0 0 0 0 0 0 0 0 0 0 0 0 0 0 5 7 8
386 370 85 0 2 0 0 0 0 4 0 3 2 5 0 0 0 0 0 0 0 0 0 0 4 8 0 0 0 0 0 0 0 0 0 0 0 0 0 0 0 6 8
CIN
-251 -243 -204 -214 -231 -203 -184 -141 -101 -83 -94 -87 -132 -206 -252 -220 -172 -128 -139 -118 -104 -88 -72 -55 -58 -64 -57 -60 -62 -89 -103 -95 -52 -110 -84 -85 -162 0 -124 -168 -235 0 0
-282 -227 -229 -208 -182 -179 -177 -156 -132 -88 -110 -125 -241 -240 -276 -214 -158 -104 -80 -73 -43 -42 -35 -54 -45 -44 -69 -109 -98 -105 -72 -70 -68 -78 -103 -79 -136 -13 0 0 0 0 0
-405 -297 -220 -214 -167 -141 -151 -146 -147 -100 -186 -243 -252 -198 -156 -135 -129 -102 -87 -119 -55 -32 -51 -47 -38 -60 -162 0 0 -83 -89 -94 -85 -71 -71 -84 -43 -160 -99 -13 0 0 -123
0 0 -294 -226 -175 -150 -141 -125 -143 -142 -183 -193 -174 -153 -262 0 0 0 -225 -200 -141 -127 -154 -133 -187 0 0 0 0 0 0 -209 -70 -118 -93 -74 -61 -77 -105 -98 -98 -108 -82
0 0 -252 -235 -176 -169 -145 -165 -168 -213 -123 -159 -253 -98 0 0 0 0 -323 -208 -232 -222 -177 -254 0 0 0 -223 -229 -193 -241 -120 -225 -85 0 -1 0 -1 0 0 -17 0 -144
0 0 -319 -221 -189 -189 -293 -277 -254 -200 -210 -312 -331 0 0 0 0 0 -426 -196 -265 -205 -198 0 0 0 0 0 0 -163 -197 -192 -280 0 0 0 -1 -1 0 0 -142 -96 -94
-240 -215 -187 -167 -163 -228 -357 -240 -204 -200 -244 -339 0 0 0 0 0 0 -426 -395 -496 -499 0 0 0 0 0 0 0 -166 -122 -144 -221 0 0 0 -4 0 0 0 0 -153 -148
-137 -148 -145 -138 -158 -211 -160 -209 -145 -229 -244 -409 0 0 0 0 0 0 -402 0 0 0 0 0 0 0 0 0 0 0 0 0 -61 0 0 0 -5 0 0 0 0 0 -145
-129 -87 -102 -146 -167 -139 -142 -94 -173 -154 -199 -287 -414 -247 0 0 0 0 -212 -450 0 0 0 0 0 0 0 0 0 0 0 0 0 0 -5 -41 0 0 0 0 0 0 0
-129 -132 -118 -93 -101 -87 -118 -168 -198 -207 -185 -170 -267 -589 0 0 0 0 0 -193 -454 0 0 0 0 0 0 0 0 0 0 0 0 0 0 -34 -16 0 0 0 0 0 0
-140 -118 -110 -86 -87 -98 -165 -189 -231 -264 -376 -330 -300 -405 0 0 0 0 -263 -185 -168 -278 -184 0 0 0 0 0 0 0 0 0 0 0 0 0 0 0 0 0 0 0 0
-125 -112 -110 -122 -76 -122 -160 -178 -261 -265 -237 -472 -225 0 0 0 0 0 0 0 -154 -193 -160 -146 0 0 0 0 0 0 0 0 0 0 0 0 0 0 0 0 0 0 0
-111 -104 -99 -94 -107 -158 -180 -235 -305 -339 -321 -321 -484 0 0 0 0 0 0 0 0 0 0 0 0 0 0 -31 -438 -29 0 0 0 0 0 0 0 0 0 0 0 0 0
-119 -87 -100 -92 -57 -118 -181 -244 -288 -379 -284 -167 -136 -184 -147 0 0 0 0 0 0 0 0 0 -250 -39 -154 -130 -113 -94 0 0 0 0 0 0 0 0 0 0 0 0 0
-108 -91 -83 -72 -60 -81 -279 -366 -146 -289 -378 -355 -280 -179 -205 -275 -197 0 0 0 0 0 0 -173 -181 -36 0 -28 -143 0 0 0 0 0 0 0 0 0 0 0 0 0 0
-105 -94 -70 -72 -92 -109 -219 0 0 0 0 0 -142 -503 0 -77 0 0 0 0 0 0 0 0 -222 -132 -133 0 0 0 0 0 0 0 -11 0 0 0 0 0 0 0 0
-113 -109 -84 -101 -109 -151 -582 -2 0 0 0 0 0 0 0 0 0 0 0 0 0 0 0 0 -3 -125 0 0 0 0 0 0 0 0 0 -34 -78 -83 -86 0 0 0 0
-151 -135 -159 -196 -181 -159 -221 -699 0 0 0 0 0 0 0 0 0 0 0 0 0 0 0 0 0 0 0 0 0 0 0 0 0 -21 -70 -77 -66 -69 -96 -115 0 0 0
-175 -180 -148 -238 -281 -224 -227 -360 -581 0 0 0 0 0 0 0 0 0 0 0 0 0 0 -117 0 0 0 0 0 0 0 0 0 0 -59 -52 -58 -57 -38 -112 0 -71 0
-114 -98 -147 -249 -201 -262 -268 -413 -383 -525 -661 -1 0 0 0 0 0 0 0 0 0 0 0 -178 0 0 0 0 0 0 0 0 0 0 0 -22 -56 0 -52 -61 0 -95 0
-114 -117 -135 -276 -365 -418 -382 -325 -302 -381 -430 -606 -559 0 0 0 0 0 0 0 0 0 0 -200 0 0 0 0 0 0 0 0 0 0 0 0 -64 -57 -69 -68 -74 -75 -108
-146 -150 -190 -332 -348 -177 -412 0 -483 -327 -241 -361 -456 -580 0 0 0 0 0 0 0 0 0 0 0 0 0 0 0 -16 0 0 0 0 0 0 0 -77 -15 -46 -76 -67 -73
-175 -229 -181 -296 -317 -194 -79 0 -577 -473 -318 -389 -356 -390 0 0 0 0 0 0 0 -482 -16 0 0 0 0 0 -70 -276 -226 0 0 0 0 0 0 0 -29 -43 -46 -81 -82
-136 -215 -190 -216 -311 -290 -411 -370 -308 -154 -435 -385 -331 -361 -466 -528 0 0 0 0 0 -402 -426 0 0 0 0 0 0 -40 -38 0 0 0 0 0 0 0 0 -69 -57 -75 -68
-123 -105 -265 -261 -326 -376 0 0 -44 -101 -19 0 -373 -421 -504 -389 0 0 0 0 0 0 0 0 0 0 0 0 0 0 0 0 0 0 0 0 0 0 0 0 -71 -71 -83
-147 -139 -401 0 -314 0 0 0 0 -111 0 -296 -44 -112 0 0 0 0 0 0 0 0 0 0 -364 -427 0 0 0 0 0 0 0 0 0 0 0 0 0 0 0 -43 -61
Wind_Speed
7 6 7 7 7 6 6 5 2 3 4 5 5 5 1 2 1 0 1 4 5 4 4 4 3 2 2 2 2 2 1 2 2 3 2 3 3 4 6 7 7 6 5
7 8 8 6 6 6 6 6 5 6 5 8 5 6 3 3 3 2 4 4 4 5 5 5 4 2 4 3 2 4 3 1 1 2 2 3 4 3 4 5 7 5 4
8 5 6 7 7 7 7 7 7 6 6 7 6 6 4 0 4 5 3 3 2 3 4 4 4 3 4 3 4 4 3 3 2 1 3 2 2 3 2 3 4 5 5
8 6 6 8 9 9 7 7 6 6 6 6 6 6 6 5 5 3 3 5 4 5 5 5 5 5 4 3 4 3 3 3 3 2 2 2 2 2 2 2 3 2 5
6 4 5 7 8 5 4 6 6 6 8 6 8 7 6 5 3 3 4 5 5 6 6 5 5 7 8 5 2 3 3 2 3 3 3 3 4 3 4 3 3 4 2
1 5 4 6 7 7 6 9 10 8 6 8 7 7 6 3 2 6 6 5 4 6 5 5 5 8 7 7 7 4 3 2 2 2 2 4 6 4 4 3 3 3 3
6 7 6 10 10 9 8 8 9 8 7 7 6 7 5 3 3 7 7 4 5 5 4 3 3 4 6 5 7 8 6 5 5 3 3 2 3 3 4 6 3 3 2
5 6 10 9 11 9 9 9 8 6 8 6 6 6 4 1 4 6 5 5 5 4 3 3 4 5 7 6 5 7 6 5 4 3 4 1 2 3 3 3 3 3 2
7 7 7 8 9 9 10 10 6 8 6 5 5 6 5 2 2 3 4 5 4 5 4 4 4 5 8 9 6 6 5 5 2 4 4 2 4 7 7 3 5 4 2
7 6 7 7 10 10 10 9 4 5 5 5 5 5 6 4 2 2 4 4 4 2 1 2 4 5 6 8 6 4 5 2 1 1 2 1 3 6 9 5 3 4 2
7 7 8 10 11 10 8 6 6 6 6 5 5 4 4 3 2 2 8 4 4 3 2 2 2 3 2 4 3 3 2 3 1 1 2 3 3 4 4 4 5 5 5
8 9 9 9 9 8 10 5 6 6 6 5 5 2 1 2 3 4 6 4 5 5 3 2 2 3 3 3 3 3 5 2 2 2 2 2 1 3 3 4 5 5 5
9 10 9 8 7 7 8 7 6 5 5 4 4 3 2 2 2 2 3 7 6 3 2 3 6 6 3 3 4 2 3 2 2 2 1 1 0 2 4 3 3 5 6
10 9 7 8 6 6 5 5 5 5 4 4 4 4 3 3 3 2 1 1 2 2 4 3 4 3 4 4 2 0 2 3 2 2 1 1 0 2 2 1 1 1 4
10 8 6 6 7 6 4 3 3 2 3 6 6 5 5 5 5 4 3 3 2 2 3 0 2 3 3 3 1 1 3 2 1 1 1 1 1 1 2 2 2 3 4
10 7 7 7 5 4 5 3 5 5 2 5 9 8 4 4 10 9 8 7 5 2 1 1 2 2 1 1 0 0 1 1 1 1 0 2 1 1 2 2 2 3 4
11 9 7 7 6 5 4 5 5 1 5 5 6 3 7 11 11 10 7 6 4 0 2 2 2 2 3 2 3 2 2 2 1 1 1 1 1 1 3 2 2 2 2
9 11 7 6 5 5 6 5 4 5 5 3 1 1 2 7 8 9 9 7 1 1 2 3 4 2 3 3 3 3 2 2 2 3 2 2 2 2 2 2 3 3 3
8 7 6 5 5 6 6 6 5 5 5 4 2 1 4 6 6 6 3 2 3 2 2 4 4 3 5 4 4 4 3 3 3 2 2 2 2 1 1 3 3 4 4
8 9 7 6 6 7 5 6 5 5 5 5 5 5 5 4 4 5 4 3 4 4 3 4 3 4 5 5 5 4 4 3 3 3 3 3 3 2 2 3 4 3 3
6 5 7 5 5 5 6 6 7 6 7 6 7 5 11 6 6 5 5 5 6 5 5 4 5 5 5 5 5 5 5 5 4 4 4 3 2 2 2 3 3 3 4
6 5 5 5 4 4 4 5 5 6 7 7 6 5 11 5 4 5 5 5 6 6 5 5 5 5 6 6 6 5 5 5 5 5 4 4 3 3 3 2 2 3 4
7 6 5 4 4 4 4 5 5 6 6 7 6 4 5 6 6 5 5 6 5 6 5 5 5 5 5 5 5 6 6 7 6 5 5 5 4 5 4 3 3 3 3
7 6 6 5 5 4 2 1 1 4 6 6 5 5 5 5 5 6 6 6 5 5 5 6 6 8 7 6 5 6 5 5 5 6 7 5 5 5 3 3 4 5 4
6 5 5 6 5 5 4 3 4 3 4 3 4 3 3 3 4 6 5 4 4 5 6 7 6 7 10 9 8 9 8 12 8 7 5 6 6 7 4 3 4 4 4
6 5 5 5 5 5 5 5 3 1 1 3 4 4 5 5 4 4 4 5 5 5 5 4 6 11 10 9 10 11 13 13 9 10 5 5 6 5 4 5 6 4 4
Wind_Direction
162 178 188 199 195 197 198 204 240 181 169 159 191 193 208 2 302 47 357 35 23 3 0 12 355 9 8 23 22 314 192 161 222 301 270 259 262 197 228 248 262 271 274
159 180 192 177 192 197 210 213 208 194 156 180 136 122 136 275 317 24 40 15 5 359 342 357 354 11 32 39 44 12 10 106 190 288 279 311 262 266 215 241 259 259 271
167 157 175 183 183 205 202 205 207 177 128 127 131 136 134 292 66 50 44 350 333 17 12 20 358 34 55 23 30 38 19 17 30 356 327 312 318 355 333 289 283 283 279
157 166 161 186 198 201 199 203 180 147 144 131 120 110 99 75 50 32 12 8 39 41 32 34 55 51 60 48 53 48 46 37 26 34 2 346 344 345 344 315 327 301 286
145 164 213 195 194 171 146 164 124 119 141 116 104 92 83 72 45 58 42 40 54 61 60 60 45 43 45 43 57 18 38 21 37 29 30 25 13 350 353 318 301 307 297
48 224 221 156 133 115 118 121 130 121 101 106 98 102 92 77 83 53 55 74 69 64 61 41 40 34 28 30 8 356 172 112 74 57 24 39 14 4 336 318 313 323 342
202 162 144 135 122 123 122 121 122 115 120 112 111 108 116 129 50 48 54 66 76 64 69 54 37 26 24 19 14 58 66 59 82 114 95 49 2 337 310 350 329 319 42
165 127 123 125 123 136 137 129 116 131 127 126 120 125 132 117 41 42 119 94 83 72 58 59 59 34 25 12 55 56 58 52 108 107 112 141 339 7 8 312 293 297 189
151 150 133 136 128 130 127 126 134 126 123 126 140 153 135 113 16 23 124 118 91 65 37 35 60 57 31 24 66 70 54 34 63 123 141 170 47 45 38 359 11 26 337
159 155 137 141 132 130 132 131 121 127 128 131 149 145 150 148 227 301 151 145 138 138 348 357 48 66 52 46 65 51 59 354 307 259 355 246 43 50 42 37 5 33 337
121 123 124 133 125 131 122 120 125 122 121 143 135 142 143 160 167 98 116 151 170 166 214 262 255 214 132 101 103 56 328 303 109 103 41 46 62 73 51 32 25 42 26
121 124 124 116 131 133 124 128 132 128 138 147 141 145 195 166 164 131 114 135 146 158 207 225 233 231 300 346 336 5 11 56 113 69 53 25 52 99 84 65 48 44 33
126 122 123 120 129 130 133 142 136 148 157 162 160 169 194 235 222 194 158 121 108 135 207 234 230 227 254 328 346 327 108 104 111 68 29 343 283 155 130 76 46 63 37
129 136 134 133 130 137 137 150 149 159 167 170 185 195 204 233 250 236 230 24 49 66 349 321 275 271 252 237 311 89 147 141 159 163 206 267 19 124 152 138 23 358 53
141 137 138 145 162 156 114 167 178 173 191 186 202 189 178 217 228 166 168 172 170 216 299 336 34 35 7 337 151 119 79 80 124 188 86 34 41 74 73 107 87 45 69
144 141 165 173 172 156 150 146 75 69 10 256 242 189 209 247 122 127 130 145 173 207 62 345 248 144 80 62 221 134 46 18 129 137 154 133 127 124 132 105 82 86 97
152 154 180 184 181 162 162 169 163 359 23 7 16 158 166 153 142 145 157 164 217 155 195 236 250 189 167 138 171 179 199 226 212 178 136 74 111 103 135 129 125 116 104
159 159 181 195 175 168 176 174 160 170 163 221 209 12 13 140 151 156 173 160 149 208 223 220 230 203 191 173 188 174 173 199 206 228 181 174 164 152 161 155 171 158 154
164 172 185 195 198 194 182 176 187 179 176 182 161 278 129 120 148 179 211 206 209 245 219 226 216 195 202 184 186 198 183 196 196 200 206 200 138 122 52 136 168 166 147
169 167 183 199 213 215 181 169 186 178 193 197 201 203 142 141 211 213 203 181 218 246 256 250 197 203 195 182 196 184 195 218 236 218 242 175 163 159 182 181 192 158 188
171 170 200 171 183 180 165 185 194 184 198 206 218 197 177 178 210 222 207 211 217 213 241 206 191 206 198 192 195 187 209 203 217 224 217 226 234 162 190 198 179 187 162
160 174 190 189 175 141 177 172 181 198 199 200 221 209 173 203 221 230 234 226 220 208 210 198 195 198 204 192 197 194 205 206 207 215 209 205 200 200 176 189 167 171 183
164 174 193 189 176 160 142 164 182 197 188 207 218 194 173 207 219 224 240 254 209 208 200 182 196 202 215 211 190 190 195 205 201 186 192 192 201 200 205 179 200 177 187
163 172 190 202 174 170 156 64 182 184 178 181 188 195 198 203 201 215 231 262 231 218 188 187 200 203 205 212 199 205 204 196 182 194 186 183 195 211 198 194 192 206 192
162 172 180 187 185 177 163 171 191 183 159 191 204 201 208 222 216 228 232 206 231 218 210 206 205 208 214 207 206 197 192 184 187 190 176 183 197 196 200 211 200 198 215
164 179 188 168 167 169 159 168 140 132 117 169 166 191 201 195 246 214 213 192 202 213 206 204 212 221 211 208 209 183 179 192 185 196 174 176 189 201 199 209 225 224 217